Location: Santa Barbara
(34.4500°N, 119.7700°W)
Time: 04:39:18
(UTC-07:00)

Cosmos 1626 Rocket - Visible Passes

Search period start: 18 September 2014 00:00
Search period end: 28 September 2014 00:00
Orbit: 604 x 633 km, 82.5° (Epoch: 17 September)

Date Brightness Start Highest point End Pass type
(mag) Time Alt. Az. Time Alt. Az. Time Alt. Az.
18 Sep 4.2 04:49:14 43° NNW 04:49:14 43° NNW 04:52:17 10° N visible
19 Sep 6.6 03:29:55 12° NE 03:29:55 12° NE 03:30:29 10° NE visible
19 Sep 5.0 05:07:06 23° NW 05:07:06 23° NW 05:09:13 10° NNW visible
20 Sep 6.2 03:47:43 16° NE 03:47:43 16° NE 03:48:44 10° NNE visible
20 Sep 5.7 05:24:54 12° NW 05:24:54 12° NW 05:25:33 10° NW visible
21 Sep 6.0 04:05:28 16° NNE 04:05:28 16° NNE 04:06:23 10° NNE visible
22 Sep 6.1 04:23:10 13° N 04:23:10 13° N 04:23:39 10° N visible
